cliquez pour ajouter le site Runraid à vos favoris  English version (google)  Retour à l'accueil Ecrire à l'auteur du site Runraid : Michel Jourdan



Les prochaines courses


Les derniers résultats

cliquez pour visualiser la page complète relatant la chronologie des éruptions du Piton de la Fournaise
éruptions Piton de la Fournaise


Ile de La Réunion

 Diagonale des Fous 

Ecrire au créateur du site : Michel Jourdan
Contact


2016-07-09 - UTRB Ile Maurice (47 km)

Pour consulter le palmarès d'un coureur, un clic sur son nom !

Vous avez des remarques, corrections, ... sur ces résultats , un clic sur --> pour me transmettre toute information concernant les classements


UTRB Ile Maurice (47 km) - 2016 : classement des 198 finishers
Place Nom Temps Cat. Club Sexe Clt/cat.
Place Nom Temps Cat. Club Sexe Clt/cat.
1 DUCHEMANN Frederic 04:05:54 SEM M 27595
2 ITTOO Vishal 04:13:41 SEM M 78858
3 REGNERIE Pascal 04:13:43 V1M M 27289
4 VITRY Jean Philippe 04:18:46 SEM M 27650
5 LELONG Romain 04:27:35 SEM M 27044
6 ODULES Stephane 04:35:03 SEM M 26966
7 HOAREAU Florent 04:50:08 SEM M 26908
8 ANGOT Xavier 04:57:18 SEM M 27792
9 DE MAROUSSEM Yan 05:00:15 V1M M 25562
10 RAGGOO Rowin 05:06:18 SEM M 78444
11 NURSIMLOO Thierry 05:10:23 SEM M 25568
12 HAU Andrew 05:12:20 SEM M 23519
13 MALO Trihan 05:17:30 V1M M 25371
14 DIJOUX Fady 05:27:17 SEM M 27888
15 RUNGTOOA Pravish 05:28:03 SEM M 76951
16 GAUNGOO Balkrishna 05:28:17 V1M M 24446
17 MATHIAS Fontaine 05:28:42 SEM M 25382
18 ETIENNE Denis 05:35:20 SEM M 23526
19 BALVIN PITTEEA Luximan 05:35:37 V1M M 0
20 GHISSE Yann 05:36:49 V1M M 22130
21 HOLTZHAUSEN Gustav 05:37:35 V1M M 27680
22 FOLIO Jean Yves 05:38:10 V2M M 24376
23 TYACK Laurent 05:38:53 V1M M 25438
24 DE ROUCY Remi 05:39:22 SEM M 22381
25 ST PIERRE Jean Rex 05:40:37 SEM M 77094
26 SORRES Frederic 05:42:18 SEM M 27502
27 NARAINEN Arougen 05:42:27 SEM M 25700
28 BEGUE Eddy 05:45:30 V2M M 26328
29 GERARD Valerie 05:50:55 V1F F 1ere F 81392
30 GRENOUILLE Eric 05:50:56 V1M M 77796
31 ALIDOR Johnny 05:51:32 V1M M 28639
32 HOUNG CHUI KIEN Jean Jacques 05:51:32 V2M M 28641
33 FONTAINE Yohan 05:53:11 M M 28928
34 KOENIG Frederic 05:55:23 V1M M 76067
35 BARDEUR Ulrich 05:57:05 SEM M 24557
36 MARIA Pierre Yves 05:57:58 SEM M 82086
37 MADUB Kunal 05:59:35 SEM M 75738
38 ALIPHON Gael 06:02:36 SEM M 75731
39 DESILES Jonathan 06:04:36 SEM M 28640
40 BHIMA Sunee 06:07:12 V1M M 79450
41 PRUGNIERES Eric 06:08:30 V1M M 24731
42 TECHER Roland 06:09:49 V2M M 27843
43 VASSOR Christophe 06:10:12 SEM M 22391
44 LIM PAC CHONG Vincent 06:10:49 SEM M 75714
45 GOKHOOL Vicky 06:11:46 SEM M 78237
46 JEALALL Dev 06:15:15 SEM M 76058
47 ANTONIO Lindsay 06:17:02 V2M M 77916
48 GOBLET Yann 06:17:32 SEM M 78577
49 EMCH Peter 06:18:38 V2M M 74932
50 POIGNET GHISSE Agathe 06:20:26 V1F F 2eme F 22131
51 DOGER DE SPEVILLE Yannick 06:24:10 SEM M 79158
52 CLAUDIN Michael 06:25:36 SEM M 27706
53 GUILLAUME Primard 06:28:03 V1M M 27620
54 HENNEQUIN Sylvain 06:28:48 V1M M 76645
55 CHAN LIN FAT Bernard 06:29:43 SEM M 24701
56 RAMSURNSING Duryodhunsingh 06:32:52 V2M M 25330
57 CHAN SEEM Johan 06:32:53 SEM M 78576
58 SCHICK Doryane 06:33:16 V2F F 3eme F 27007
59 SULLIVAN Emilie 06:35:32 SEF F 25430
60 DENNEMONT Jacky 06:35:35 V1M M 27329
61 CAUMES Jean Patrice 06:41:36 V3M M 26624
62 CHITEVE Derek 06:41:57 SEM M 25569
63 COUACAUD Olivier 06:42:43 SEM M 77948
64 DE MAROUSSEM Quentin 06:42:44 SEM M 25629
65 COUACAUD Herbert 06:42:45 SEM M 78876
66 PAYET Willy Joseph 06:46:35 V1M M 26937
67 MONTY Alain 06:46:35 V2M M 25399
68 SIGISMEAU Yohann 06:46:35 SEM M 27914
69 NOURRY Jacky 06:48:44 V1M M 28643
70 TISSEYRE Olivier 06:49:10 V1M M 26669
71 DE BUCHERE Xavier 06:51:30 V2M M 27764
72 RAMLOLL Rajesh 06:53:01 SEM M 25468
73 POTHIN Alain Stephane 06:53:10 V1M M 25509
74 OLIVIER Florent 06:53:20 SEM M 26583
75 LALLMON Pranesh 06:54:38 V1M M 0
76 PONCELET Stephan 06:55:23 V2M M 22142
77 SOPHIE Bege 06:58:46 V1F F 24004
78 BRET Giovanni 06:59:02 SEM M 27454
79 PIQUANT Ludovic 07:00:14 V1M M 24530
80 PIQUANT Severine 07:00:14 V1F F 24531
81 CLIFF SOPHIE Jaze 07:01:58 SEM M 25401
82 LEBRETON GeRard 07:03:17 SEM M 24046
83 DHAWOL Devanand 07:07:38 V2M M 79447
84 GARY TANNER Steve 07:08:24 SEM M 78887
85 GODERE Christophe 07:10:45 SEM M 27548
86 CAUMES Benoit 07:11:07 SEM M 26623
87 LEROUX Damien 07:11:07 SEM M 24732
88 SING AUBEELUCK Yoganand 07:12:30 V1M M 78542
89 CLENCY AZA Jerome Claude 07:15:36 V1M M 76882
90 GERMAIN Brice 07:16:45 SEM M 26480
91 TRITON David 07:18:26 SEM M 76078
92 MERLE Fabielle 07:20:06 SEF F 75733
93 LE COURT DE BILLOT Didier 07:20:07 V2M M 25472
94 VAN HOOLAND Patrick 07:28:02 V2M M 23981
95 BALGOBHIND Hemlall 07:30:02 V2M M 79445
96 MONTET Oceane 07:30:11 SEF F 26051
97 HOAREAU Nicolas 07:31:45 SEM M 25845
98 SAWMY Noel 07:32:16 V1M M 77246
99 KUBOTA Yaeko 07:36:09 V2F F 25138
100 LARDANT Philippe 07:38:33 V1M M 27985
101 LESTE Dominique 07:43:05 SEM M 23740
102 WILLIAM MOUTOUSAMY Yannick 07:43:06 SEM M 22599
103 MOYAC Charles 07:43:50 V1M M 24580
104 BIGOU Philippe 07:44:34 V1M M 26413
105 Dijoux Bernard 07:45:52 V1M M 24590
106 BUSVIAH LEROUX Sabine 07:45:57 SEF F 76030
107 OLLA Michael 07:48:08 SEM M 23459
108 MOONSAMY Jean Claude 07:50:38 V1M M 81509
109 PACHAMOOTHOO Deny 07:50:39 V1M M 79256
110 SALING Mathieu 07:51:14 V1M M 27940
111 SEMBHOO Virikshit 07:51:21 SEM M 23893
112 ELIZEON Jocelyn 07:51:28 V1M M 24303
113 FERRANDI Pierre Francois 07:52:49 SEM M 24211
114 NAZE Bruno 07:55:31 SEM M 26603
115 THONG CHAN CHU CHEONG Tat 07:55:58 V1M M 75717
116 CHAN CHU CHEONG Patrick 07:55:58 SEM M 75898
117 WONG NG Frankie 07:55:58 V1M M 76172
118 APPADU Rajendra 07:56:36 V2M M 79451
119 SENEQUE Jean Michel 07:56:36 V2M M 25334
120 MAILLOT Daniel 08:02:24 V2M M 26938
121 GOVIND Amit 08:03:41 SEM M 77919
122 OZOUX Gauthier 08:05:35 SEM M 26450
123 ROMESH Ramkorun 08:05:56 SEM M 77939
124 MUNGROO Aumduth 08:09:02 V2M M 24333
125 CHRISTIAN Soellie 08:13:31 SEF F 77328
126 MOOLKEEA Zamir 08:13:33 SEM M 77338
127 BILLON Dominique 08:13:38 V2M M 75863
128 YVES CRETIN Jean 08:18:32 V1M M 75637
129 RABOT Adams 08:18:33 SEM M 24757
130 BABET Philippe 08:18:38 V3M M 27290
131 DE KUIPER Raymond 08:19:03 V1M M 0
132 ARMOUET David 08:19:13 V1M M 26719
133 Mussard Alain 08:19:19 SEM M 25297
134 JOURNADE Philippe 08:19:44 V1M M 79833
135 MAMET Jean Maurice 08:19:44 V2M M 76330
136 PASCAL Philippe 08:19:44 V2M M 27920
137 MOTY Vikramjee 08:20:14 SEM M 25278
138 PALAZIE Maxime 08:23:26 V2M M 28644
139 LAURET Gabriel 08:23:27 V2M M 28642
140 BERTONCELLI Natascia 08:26:00 V2F F 25271
141 LIU KIONG TSE SIK SUN Mathieu 08:26:36 SEM M 76252
142 CANNOO Vishale 08:29:57 SEM M 23463
143 NUNDRAN Deoraz 08:34:01 V1M M 75718
144 SIDRAN Patrick 08:34:05 V2M M 26412
145 GOMEDHANAND RITLALL Viksii 08:34:37 SEM M 75716
146 CHOOLLUN Raj Kumar 08:37:46 V2M M 82020
147 LAPIERRE Dany 08:37:47 V1M M 23630
148 ALBERT Mario 08:37:47 V1M M 78179
149 ANTONIO Doris 08:39:58 V1F F 78917
150 RAMDOO Sharvani 08:40:03 SEF F 25448
151 ARVIND PARBOTEEAH Gavinash 08:40:10 SEM M 77802
152 AUBEELUCK Sookritdass 08:41:30 V2M M 75732
153 GOPAL Haulkory 08:45:27 SEM M 23619
154 LONATI Roberta 08:45:35 V2F F 28007
155 MOOTIEN Pamela 08:47:32 V2F F 76086
156 NUNDRAN Sheela 08:49:34 V1F F 77176
157 AUGUSTINE NAYABOURY Marie Edmee 08:50:30 V2F F 22604
158 PRAYAGSING Sanjitsing(Akshay) 08:51:24 SEM M 21643
159 DURGADOO Javenathan 08:53:56 SEM M 79959
160 SINGH DEONANAN Prithiviraj 08:57:05 V2M M 26562
161 KALIAPERMAL Sittirein 08:57:05 SEM M 77852
162 KUMAR RAMKORUN Nund 08:59:19 V2M M 27782
163 COX Emmanuel 09:04:03 SEM M 27212
164 LUCHESI Jos 09:04:27 V1M M 26148
165 ABHISHEK Ramkorun 09:05:35 V1M M 79453
166 CHITCHONG Daniel 09:10:44 V3M M 79128
167 CHAUVEAU Philippe Andre 09:25:59 V3M M 75606
168 WONG SHIU LEUNG Patricia 09:25:59 V1F F 79166
169 OOJORAH Ved 09:27:04 SEM M 76332
170 LEON Christelle 09:28:30 V1F F 27032
171 MASALA Dominique 09:31:32 V1M M 22270
172 KRISTELLE L'Aimable 09:31:38 SEF F 27989
173 L'AIMABLE Thierry 09:31:38 SEM M 25453
174 CELESTIN Jean Claude 09:32:40 V3M M 79449
175 KHADAROO Alvin 09:32:43 SEM M 79786
176 PELLAT Regine 09:33:48 SEF F 26410
177 RAMIREZ Sophie 09:35:05 SEF F 24707
178 BLIN Peggy 09:38:03 V1F F 78268
179 CARO Paulette 09:41:38 V2F F 26851
180 CARVER Warren 09:47:32 V1M M 26609
181 JUBAULT Didier 09:50:49 V1M M 25117
182 BOYER Valerie 09:50:50 V1F F 25118
183 BONNEFIN LEBON Jessica 09:50:55 SEF F 77620
184 LEBON Olivier 09:50:58 SEM M 76608
185 TSAN Joelle 09:51:43 V2F F 75519
186 DAMBREVILLE Cecile 09:55:27 SEF F 26066
187 MALET Sandrine 09:55:28 SEF F 0
188 MAREE Marie Suzette 10:05:22 V3F F 24130
189 CONSTANCE Clarel 10:06:43 V1M M 77018
190 KIM WONG AH CHAM Li 10:15:41 V1M M 79041
191 PAYET Jean Frederic 10:23:36 V1M M 25467
192 ALLEN VEERASAMY Gael 10:24:19 SEM M 75822
193 PAYET Walter Richard 10:29:23 V1M M 26296
194 AH LOW Orietta 11:05:18 V2F F 79084
195 AH LOW Jeff 11:05:25 V2M M 79082
196 CHIKHURI Roshan 11:31:32 V1M M 76552
197 MAUDHOO Raj 11:31:33 V3M M 81606
198 POULE Benedicte 15:45:13 V1M M 26523


ReferencementCe site est listé dans la catégorie Sport : Sports extrêmes Dictionnaire
| Accueil | La Réunion  Vue du ciel | Météo | Cyclones | Volcan | Cirques de Mafate , Cilaos , Salazie | Photos Randonnées | Randonnées Réunion: Randos Espiègle , Courses montagne | Diagonale des Fous |  Marathon des Sables | Voyages Les stats du site | Fonds écran | Plan du site | Blog de runraid | Galerie photos Sport Réunion |